When you browse on this site, cookies collect data to enhance your experience and personalize the content and advertising you see.
Visit our Privacy Policy to learn more. By continuing to use the site, you agree to this use of cookies and data.
  • In Österreich
  • Länderverzeichnis
  • Für 7 Tage
  • Wassertemperatur
  • Wetterkarte
  • News
  • Widgets
  • user-avatar
    Anmelden

    Stündliche Wetter Borshomi

    Heute, 21 Januar, Dienstag

    Zeit Temperatur Niederschläge Wind Luftdruck Luftfeuchtigkeit
    00:00 -3°C° 0 mm 1 m/S 669 mmHg 83%
    01:00 -3°C° 0 mm 1 m/S 669 mmHg 84%
    02:00 -3°C° 0 mm 1 m/S 669 mmHg 86%
    03:00 -3°C° 0 mm 1 m/S 669 mmHg 86%
    04:00 -3°C° 0.1 mm 1 m/S 669 mmHg 88%
    05:00 -4°C° 0.1 mm 1 m/S 669 mmHg 89%
    06:00 -4°C° 0.1 mm 1 m/S 668 mmHg 91%
    07:00 -3°C° 0.3 mm 1 m/S 669 mmHg 91%
    08:00 -3°C° 0.3 mm 1 m/S 669 mmHg 91%
    09:00 -2°C° 0 mm 1 m/S 669 mmHg 92%
    10:00 -1°C° 0.3 mm 1 m/S 669 mmHg 91%
    11:00 -2°C° 0.3 mm 2 m/S 669 mmHg 90%
    12:00 -1°C° 0.3 mm 2 m/S 669 mmHg 89%
    13:00 -2°C° 0.3 mm 2 m/S 668 mmHg 90%
    14:00 -2°C° 0.3 mm 2 m/S 668 mmHg 91%
    15:00 -2°C° 0 mm 2 m/S 668 mmHg 92%
    16:00 -2°C° 0.5 mm 2 m/S 669 mmHg 93%
    17:00 -3°C° 0.5 mm 2 m/S 669 mmHg 95%
    18:00 -3°C° 0.5 mm 2 m/S 669 mmHg 96%
    19:00 -4°C° 0.4 mm 2 m/S 669 mmHg 96%
    20:00 -4°C° 0.4 mm 2 m/S 670 mmHg 96%
    21:00 -4°C° 0.4 mm 2 m/S 670 mmHg 96%
    22:00 -5°C° 0.4 mm 2 m/S 670 mmHg 96%
    23:00 -5°C° 0.4 mm 2 m/S 670 mmHg 96%

    Morgen, 22 Januar, Mittwoch

    Zeit Temperatur Niederschläge Wind Luftdruck Luftfeuchtigkeit
    00:00 -5°C° 0.4 mm 2 m/S 670 mmHg 96%
    01:00 -6°C° 0.2 mm 2 m/S 670 mmHg 95%
    02:00 -6°C° 0.2 mm 2 m/S 670 mmHg 94%
    03:00 -7°C° 0.2 mm 2 m/S 670 mmHg 93%
    04:00 -7°C° 0.2 mm 2 m/S 669 mmHg 92%
    05:00 -7°C° 0.2 mm 2 m/S 669 mmHg 91%
    06:00 -8°C° 0.2 mm 2 m/S 668 mmHg 90%
    07:00 -7°C° 0.2 mm 2 m/S 668 mmHg 89%
    08:00 -7°C° 0.2 mm 2 m/S 668 mmHg 87%
    09:00 -7°C° 0.2 mm 2 m/S 668 mmHg 85%
    10:00 -6°C° 0.1 mm 2 m/S 668 mmHg 85%
    11:00 -5°C° 0.1 mm 2 m/S 668 mmHg 85%
    12:00 -4°C° 0.1 mm 2 m/S 668 mmHg 85%
    13:00 -4°C° 0.1 mm 2 m/S 667 mmHg 85%
    14:00 -4°C° 0.1 mm 2 m/S 667 mmHg 86%
    15:00 -4°C° 0.1 mm 2 m/S 666 mmHg 87%
    16:00 -4°C° 0.1 mm 2 m/S 666 mmHg 89%
    17:00 -5°C° 0.1 mm 2 m/S 666 mmHg 92%
    18:00 -4°C° 0.1 mm 1 m/S 666 mmHg 94%
    19:00 -4°C° 0.1 mm 1 m/S 666 mmHg 93%
    20:00 -4°C° 0.1 mm 1 m/S 666 mmHg 93%
    21:00 -7°C° 0.1 mm 2 m/S 666 mmHg 92%
    22:00 -7°C° 0 mm 2 m/S 665 mmHg 90%
    23:00 -8°C° 0 mm 2 m/S 664 mmHg 88%

    übermorgen, 23 Januar, Donnerstag

    Zeit Temperatur Niederschläge Wind Luftdruck Luftfeuchtigkeit
    00:00 -8°C° 0 mm 2 m/S 663 mmHg 87%
    01:00 -8°C° 0 mm 2 m/S 663 mmHg 85%
    02:00 -8°C° 0 mm 2 m/S 662 mmHg 83%
    03:00 -8°C° 0 mm 2 m/S 662 mmHg 82%
    04:00 -8°C° 0 mm 2 m/S 661 mmHg 81%
    05:00 -9°C° 0 mm 2 m/S 661 mmHg 80%
    06:00 -9°C° 0 mm 2 m/S 660 mmHg 80%
    07:00 -8°C° 0 mm 2 m/S 660 mmHg 79%
    08:00 -7°C° 0 mm 2 m/S 660 mmHg 78%
    09:00 -4°C° 0 mm 1 m/S 661 mmHg 78%
    10:00 -5°C° 0.1 mm 2 m/S 660 mmHg 80%
    11:00 -4°C° 0.1 mm 2 m/S 660 mmHg 81%
    12:00 -3°C° 0.1 mm 2 m/S 660 mmHg 83%
    13:00 -3°C° 0.2 mm 2 m/S 659 mmHg 86%
    14:00 -3°C° 0.2 mm 2 m/S 659 mmHg 88%
    15:00 -3°C° 0.2 mm 2 m/S 659 mmHg 91%
    16:00 -2°C° 0.1 mm 1 m/S 659 mmHg 91%
    17:00 -2°C° 0.1 mm 1 m/S 659 mmHg 92%
    18:00 -3°C° 0.1 mm 1 m/S 659 mmHg 93%
    19:00 -3°C° 0.3 mm 1 m/S 659 mmHg 92%
    20:00 -4°C° 0.3 mm 1 m/S 660 mmHg 91%
    21:00 -4°C° 0.3 mm 1 m/S 660 mmHg 90%
    22:00 -5°C° 0.8 mm 2 m/S 660 mmHg 92%
    23:00 -5°C° 0.8 mm 2 m/S 661 mmHg 94%

    24 Januar, Freitag

    Zeit Temperatur Niederschläge Wind Luftdruck Luftfeuchtigkeit
    00:00 -6°C° 0.8 mm 3 m/S 661 mmHg 96%
    01:00 -6°C° 0.5 mm 3 m/S 662 mmHg 96%
    02:00 -6°C° 0.5 mm 2 m/S 662 mmHg 96%
    03:00 -6°C° 0.5 mm 2 m/S 662 mmHg 96%
    04:00 -7°C° 0.9 mm 2 m/S 663 mmHg 95%
    05:00 -8°C° 0.9 mm 3 m/S 663 mmHg 95%
    06:00 -8°C° 0.9 mm 3 m/S 663 mmHg 95%
    07:00 -8°C° 0.4 mm 3 m/S 664 mmHg 94%
    08:00 -7°C° 0.4 mm 2 m/S 664 mmHg 93%
    09:00 -8°C° 0.4 mm 2 m/S 665 mmHg 92%
    10:00 -8°C° 0.4 mm 3 m/S 665 mmHg 90%
    11:00 -7°C° 0.4 mm 3 m/S 665 mmHg 88%
    12:00 -6°C° 0.4 mm 3 m/S 665 mmHg 86%
    13:00 -6°C° 0.5 mm 3 m/S 665 mmHg 86%
    14:00 -7°C° 0.5 mm 3 m/S 665 mmHg 87%
    15:00 -7°C° 0.5 mm 3 m/S 665 mmHg 88%
    16:00 -7°C° 0.5 mm 3 m/S 666 mmHg 90%
    17:00 -7°C° 0.5 mm 2 m/S 666 mmHg 93%
    18:00 -8°C° 0.5 mm 2 m/S 667 mmHg 96%
    19:00 -8°C° 0.4 mm 2 m/S 668 mmHg 96%
    20:00 -9°C° 0.4 mm 2 m/S 668 mmHg 96%
    21:00 -9°C° 0.4 mm 2 m/S 669 mmHg 96%
    22:00 -8°C° 0.2 mm 1 m/S 670 mmHg 96%
    23:00 -8°C° 0.2 mm 1 m/S 670 mmHg 96%

    25 Januar, Samstag

    Zeit Temperatur Niederschläge Wind Luftdruck Luftfeuchtigkeit
    00:00 -9°C° 0.2 mm 1 m/S 670 mmHg 96%
    01:00 -9°C° 0.1 mm 1 m/S 670 mmHg 96%
    02:00 -10°C° 0.1 mm 1 m/S 670 mmHg 95%
    03:00 -11°C° 0.1 mm 1 m/S 670 mmHg 94%
    04:00 -11°C° 0 mm 1 m/S 670 mmHg 92%
    05:00 -14°C° 0 mm 2 m/S 670 mmHg 89%
    06:00 -14°C° 0 mm 2 m/S 670 mmHg 87%
    07:00 -14°C° 0 mm 2 m/S 670 mmHg 85%
    08:00 -13°C° 0 mm 2 m/S 671 mmHg 84%
    09:00 -12°C° 0 mm 2 m/S 671 mmHg 82%
    10:00 -8°C° 0 mm 1 m/S 671 mmHg 79%
    11:00 -7°C° 0 mm 1 m/S 671 mmHg 77%
    12:00 -4°C° 0 mm 1 m/S 671 mmHg 74%
    13:00 -3°C° 0 mm 1 m/S 670 mmHg 75%
    14:00 -3°C° 0 mm 1 m/S 670 mmHg 75%
    15:00 -3°C° 0 mm 1 m/S 670 mmHg 76%
    16:00 -6°C° 0 mm 1 m/S 669 mmHg 75%
    17:00 -7°C° 0 mm 1 m/S 669 mmHg 73%
    18:00 -10°C° 0 mm 2 m/S 668 mmHg 72%
    19:00 -10°C° 0 mm 2 m/S 668 mmHg 71%
    20:00 -10°C° 0 mm 2 m/S 668 mmHg 70%
    21:00 -10°C° 0 mm 2 m/S 668 mmHg 69%
    22:00 -10°C° 0 mm 2 m/S 668 mmHg 68%
    23:00 -10°C° 0 mm 2 m/S 668 mmHg 67%

    26 Januar, Sonntag

    Zeit Temperatur Niederschläge Wind Luftdruck Luftfeuchtigkeit
    00:00 -9°C° 0 mm 2 m/S 668 mmHg 66%
    01:00 -9°C° 0 mm 2 m/S 668 mmHg 66%
    02:00 -9°C° 0 mm 2 m/S 668 mmHg 66%
    03:00 -9°C° 0 mm 2 m/S 668 mmHg 66%
    04:00 -9°C° 0 mm 2 m/S 667 mmHg 66%
    05:00 -9°C° 0 mm 2 m/S 667 mmHg 67%
    06:00 -9°C° 0 mm 2 m/S 667 mmHg 67%
    07:00 -8°C° 0 mm 2 m/S 668 mmHg 69%
    08:00 -7°C° 0 mm 2 m/S 668 mmHg 71%
    09:00 -6°C° 0 mm 2 m/S 668 mmHg 72%
    10:00 -4°C° 0 mm 2 m/S 668 mmHg 75%
    11:00 -2°C° 0 mm 2 m/S 668 mmHg 78%
    12:00 -1°C° 0 mm 2 m/S 669 mmHg 81%
    13:00 -1°C° 0 mm 2 m/S 668 mmHg 81%
    14:00 +1°C° 0 mm 2 m/S 668 mmHg 82%
    15:00 +1°C° 0 mm 2 m/S 668 mmHg 82%
    16:00 -2°C° 0 mm 2 m/S 668 mmHg 81%
    17:00 -3°C° 0 mm 2 m/S 668 mmHg 80%
    18:00 -5°C° 0 mm 2 m/S 668 mmHg 79%
    19:00 -5°C° 0 mm 2 m/S 668 mmHg 79%
    20:00 -5°C° 0 mm 2 m/S 668 mmHg 79%
    21:00 -6°C° 0 mm 2 m/S 668 mmHg 79%
    22:00 -6°C° 0 mm 2 m/S 668 mmHg 77%
    23:00 -6°C° 0 mm 2 m/S 668 mmHg 76%
    Mehr zeigen